Location: Vista Encantada
(35.1109°N, 106.5681°W)
Time: 09:20:33
(UTC+00:00)

ADEOS Rocket - Pass Details

Date: 29 October 2020
Orbit: 859 x 1306 km, 98.7° (Epoch: 04 December)

Event Time Altitude Azimuth Distance (km) Brightness Sun altitude
Rises 12:42:58 0° 215° (SW) 3,447 5.6 -9.2°
Reaches altitude 10° 12:46:57 10° 244° (WSW) 2,492 4.7 -8.4°
Maximum altitude 12:49:10 12° 269° (W) 2,320 4.4 -8.0°
Drops below altitude 10° 12:51:25 10° 293° (WNW) 2,503 4.5 -7.5°
Sets 12:55:27 0° 323° (NW) 3,479 5.4 -6.7°
